User: anonymous   Login
Location: Byszew
(52.1813°N, 19.2693°E)
Time: 11:52:21
(UTC+00:00)
Language:

Cosmos 1470 Rocket - Orbit

View from above orbital plane
View from above orbital plane
View from above satellite
View from above satellite

Ground track
Ground track

The orbit data is extracted from the following two-line orbital elements,

1 14148U 83061B   21132.20390451  .00000075  00000-0  62253-5 0  9994
2 14148  82.5213  14.7768 0020563 318.9132 158.6325 14.83377579 46089
Epoch (UTC): 12 May 2021 04:53:37
Eccentricity: 0.0020563
inclination: 82.5213°
perigee height: 604 km
apogee height: 633 km
right ascension of ascending node: 14.7768°
argument of perigee: 318.9132°
revolutions per day: 14.83377579
mean anomaly at epoch: 158.6325°
orbit number at epoch: 4608

The dashed part of the orbit path shows where the satellite is in the earth's shadow,  

DLR